[Show "Revision History"] [Show "General Page Infos"] [Show "Page hits and edits"]

Revision History

Showing page edit history entries from 1 to 74 out of 74 entries total. (5 | 10 | 25 | 50 | 100 | 200 items per page)

# Date Size Editor Comment Action
74 2011-12-16 05:22:16 38147 to previous NoelBergman   view
73 2011-12-15 08:17:29 38115 to previous YuriZ Added Wave report view
72 2011-12-13 19:24:18 37243 to previous DennisLundberg   view
71 2011-12-13 12:32:50 37217 to previous BrettPorter   view
70 2011-12-13 06:02:29 36344 to previous DavidCrossley someone accidently inserted Chukwa report in the middle of Callback report. Please stop with the additional underlines. view
69 2011-12-13 01:10:59 36368 to previous ChrisDouglas   view
68 2011-12-13 01:10:34 36358 to previous ChrisDouglas   view
67 2011-12-13 00:44:00 36348 to previous EricYang   view
66 2011-12-12 21:51:23 35918 to previous struberg   view
65 2011-12-12 21:36:32 35916 to previous struberg   view
64 2011-12-12 21:04:00 34964 to previous OwenOmalley   view
63 2011-12-12 20:08:32 34956 to previous EricYang   view
62 2011-12-12 18:16:10 34223 to previous ChrisMattmann mention Gora graduation VOTE. view
61 2011-12-10 00:04:13 33918 to previous DavidCrossley fix text for due date view
60 2011-12-09 13:46:26 33925 to previous JukkaZitting Signed off Callback and ManifoldCF view
59 2011-12-09 13:11:12 33911 to previous JimJagielski   view
58 2011-12-09 06:48:46 33907 to previous DavidCrossley align with recently adjusted ReportingSchedule to include those missed last month (most have added themselves) view
57 2011-12-08 17:36:07 33825 to previous AlanCabrera   view
56 2011-12-08 16:50:44 33811 to previous BillieRinaldi   view
55 2011-12-08 16:16:54 33181 to previous OwenOmalley   view
54 2011-12-08 16:16:31 33193 to previous OwenOmalley   view
53 2011-12-08 05:45:59 32729 to previous ChrisMattmann Sign off on Gora report. view
52 2011-12-08 05:39:38 32691 to previous ChrisMattmann Sign off on Any23 report. view
51 2011-12-08 01:57:31 32682 to previous AlanGates   view
50 2011-12-08 01:56:28 32676 to previous AshutoshChauhan   view
49 2011-12-08 00:39:16 32112 to previous DavidCrossley clean up for Giraph (Brett removed them from Monthly reporting) view
48 2011-12-07 19:58:45 32196 to previous PatrickHunt   view
47 2011-12-07 18:24:05 32169 to previous FlavioJunqueira   view
46 2011-12-07 17:58:17 30578 to previous TomWhite2 Add Bigtop report written by Roman Shaposhnik view
45 2011-12-07 17:29:35 29170 to previous LewisJohnMcgibbney   view
44 2011-12-07 10:56:19 27337 to previous MartijnDashorst   view
43 2011-12-07 09:25:33 27328 to previous RossGardler add callback and sign off view
42 2011-12-07 09:09:55 25363 to previous RossGardler Sign off OOo and Rave view
41 2011-12-07 08:23:23 25346 to previous JulienVermillard   view
40 2011-12-07 08:11:19 25334 to previous AteDouma   view
39 2011-12-07 07:57:45 25023 to previous StefanSeelmann Signed Amber report view
38 2011-12-07 02:10:04 25014 to previous MattFranklin   view
37 2011-12-06 23:43:26 23236 to previous TimWilliams   view
36 2011-12-06 22:36:17 23223 to previous ArvindPrabhakar   view
35 2011-12-06 22:33:08 22216 to previous OlivierLamy   view
34 2011-12-06 21:18:30 22210 to previous TommasoTeofili   view
33 2011-12-06 21:07:41 20878 to previous OleMariusSmestad Added Zeta report view
32 2011-12-06 21:02:07 20157 to previous RaffaeleGuidi   view
31 2011-12-06 17:37:23 18878 to previous LewisJohnMcgibbney   view
30 2011-12-06 17:31:38 18468 to previous LewisJohnMcgibbney   view
29 2011-12-06 15:18:23 16981 to previous OlivierLamy   view
28 2011-12-06 14:39:19 16974 to previous SebastianWagner slight modifications to OpenMeetings report view
27 2011-12-06 14:37:39 16962 to previous SebastianWagner slight modifications to OpenMeetings report view
26 2011-12-06 14:08:30 16889 to previous OlivierLamy   view
25 2011-12-06 14:05:52 16882 to previous jbonofre   view
24 2011-12-06 14:02:21 16873 to previous jbonofre   view
23 2011-12-06 13:08:39 15644 to previous AlexeiFedotov   view
22 2011-12-06 12:48:56 15059 to previous MohammadNour - Added sqoop scheduled report view
21 2011-12-06 11:36:33 14240 to previous StefanBodewig sign off Lucene.NET report view
20 2011-12-06 11:08:33 14233 to previous struberg   view
19 2011-12-06 06:44:30 14224 to previous DanHaywood Added report for Isis. view
18 2011-12-05 22:51:12 12524 to previous robweir   view
17 2011-12-05 11:41:59 11093 to previous BrockNoland   view
16 2011-12-05 05:04:36 10590 to previous edwardyoon Add Hama report view
15 2011-12-05 02:08:19 10019 to previous michaelfitzner   view
14 2011-12-02 20:31:09 8747 to previous KevanMiller   view
13 2011-12-02 19:35:30 8741 to previous MattBenson Bean Validation December report view
12 2011-12-02 17:20:48 7696 to previous TommasoTeofili   view
11 2011-12-02 02:18:34 7750 to previous DavidCrossley commenced RAT report view
10 2011-12-01 22:04:11 6939 to previous DennisLundberg Add NPanday who should have reported last month view
9 2011-12-01 18:12:12 6854 to previous KarlWright   view
8 2011-12-01 08:24:56 4540 to previous StefanBodewig My thoughts on graduation view
7 2011-12-01 07:45:02 4425 to previous PrescottNasser reporting Lucene.Net view
6 2011-12-01 00:06:29 2902 to previous DavidCrossley start the next template view
5 2011-11-29 05:28:23 1142 to previous DavidCrossley get ready view
4 2011-11-17 05:30:03 1109 to previous DavidCrossley template: link to description guidelines view
3 2011-11-14 21:33:15 1169 to previous DavidCrossley remove whitespace from template, align with twilliams r19 view
2 2011-11-14 21:28:40 1150 to previous DavidCrossley add sebb r21 to template view
1 2011-06-01 04:22:17 1026 DavidCrossley add template text view